Location: Unspecified
(58.7730°N, 5.8460°E)
Time: 05:11:33
(UTC+02:00)

Cosmos 2058 - Visible Passes

Search period start: 22 October 2014 00:00
Search period end: 31 October 2014 23:00
Orbit: 571 x 592 km, 82.5° (Epoch: 21 October)

Date Brightness Start Highest point End Pass type
(mag) Time Alt. Az. Time Alt. Az. Time Alt. Az.
22 Oct 4.2 06:15:40 10° SSE 06:19:38 43° E 06:23:40 10° NNE visible
23 Oct 3.6 06:21:04 10° S 06:25:11 56° E 06:29:21 10° NNE visible
24 Oct 6.1 04:52:32 10° ESE 04:54:25 13° E 04:56:19 10° NE visible
24 Oct 3.2 06:26:33 10° S 06:30:45 73° E 06:34:59 10° NNE visible
25 Oct 5.9 04:57:13 10° ESE 04:59:50 16° E 05:02:27 10° NE visible
25 Oct 2.9 06:32:06 10° SSW 06:36:19 88° WNW 06:40:36 10° NNE visible
26 Oct 5.5 04:02:09 10° SE 04:05:15 20° E 04:08:23 10° NE visible
26 Oct 2.8 05:37:43 10° SSW 05:41:55 69° WNW 05:46:11 10° N visible
27 Oct 5.1 04:07:13 10° SE 04:10:42 25° E 04:14:12 10° NNE visible
27 Oct 3.0 05:43:24 10° SSW 05:47:32 54° WNW 05:51:43 10° N visible
28 Oct 4.7 04:13:38 17° SE 04:16:09 32° E 04:19:56 10° NNE visible
28 Oct 3.3 05:50:05 16° SW 05:53:10 43° WNW 05:57:15 10° N visible
29 Oct 4.2 04:20:14 30° SE 04:21:38 40° E 04:25:38 10° NNE visible
29 Oct 3.6 05:56:40 21° WSW 05:58:49 34° WNW 06:02:44 10° N visible
30 Oct 3.7 04:26:37 49° ESE 04:27:07 52° E 04:31:16 10° NNE visible
30 Oct 3.9 06:03:02 23° W 06:04:29 28° WNW 06:08:11 10° N visible
31 Oct 6.0 02:56:27 12° ENE 02:56:27 12° ENE 02:58:00 10° NE visible
31 Oct 3.3 04:32:52 66° ENE 04:32:52 66° ENE 04:36:52 10° NNE visible
31 Oct 4.1 06:09:16 21° WNW 06:10:10 23° WNW 06:13:36 10° N visible
